Torna al catalogo

STARLINK-32148

AttivoComunicazioniVLEO
NORAD 60263·PAYLOAD·🇺🇸 United States

Lanciato Jul 27, 2024 da Cape Canaveral Space Force Station

Loading…

Prossimi Passaggi (prossime 24 ore)

TLE

AggiornatoSource: CelesTrak SupGP

Epoca: Sep 14, 2026, 21:01 UTC

1 60263C 24131J   26257.87618056  .00053912  00000+0  17337-2 0  2570
2 60263  53.1568 252.4397 0001358  93.3922 184.7976 15.31674201    17

Traccia STARLINK-32148 in tempo reale con AllMySat

Download on the App Store